User: anonymous   Login
Location: Unspecified
(0.0000°N, 0.0000°E)
Time: 03:33:24
(UTC+00:00)
Language:

APRIZESAT 2 (LATINSAT D) - Orbit

View from above orbital plane
View from above orbital plane
View from above satellite
View from above satellite

Ground track
Ground track

The orbit data is extracted from the following two-line orbital elements,

1 28366U 04025A   17112.76151807 +.00000024 +00000-0 +22028-4 0  9997
2 28366 098.3397 028.4446 0106982 215.5896 143.8124 14.36597985671639
Epoch (UTC): 22 April 2017 18:16:35
Eccentricity: 0.0106982
inclination: 98.3397°
perigee height: 693 km
apogee height: 846 km
right ascension of ascending node: 28.4446°
argument of perigee: 215.5896°
revolutions per day: 14.36597985
mean anomaly at epoch: 143.8124°
orbit number at epoch: 67163

The dashed part of the orbit path shows where the satellite is in the earth's shadow,  

DLR